Keswick Reservoir Weather Center

Moon Phase Calendar



Keswick Reservoir Water Level
Online Cameras

 


      

Current Conditions in Shasta
4/21/2024 11:24:15 PM

59°F
Feels Like 57
Clouds
Humidity
57%
Pressure
29.91"
Wind
7 mph (W)
Dew Point
44°F
UV Index
0/10 (Low)
Visibility
6 mi

Hourly Forecast

Date & Time Sun, Apr 21
11:00 PM
Mon, Apr 22
12:00 AM
Mon, Apr 22
1:00 AM
Mon, Apr 22
2:00 AM
Mon, Apr 22
3:00 AM
Mon, Apr 22
4:00 AM
Mon, Apr 22
5:00 AM
Mon, Apr 22
6:00 AM
Mon, Apr 22
7:00 AM
Mon, Apr 22
8:00 AM
Mon, Apr 22
9:00 AM
Mon, Apr 22
10:00 AM
Mon, Apr 22
11:00 AM
Mon, Apr 22
12:00 PM
Mon, Apr 22
1:00 PM
Mon, Apr 22
2:00 PM
Mon, Apr 22
3:00 PM
Mon, Apr 22
4:00 PM
Mon, Apr 22
5:00 PM
Mon, Apr 22
6:00 PM
Mon, Apr 22
7:00 PM
Mon, Apr 22
8:00 PM
Mon, Apr 22
9:00 PM
Mon, Apr 22
10:00 PM
Mon, Apr 22
11:00 PM
Tue, Apr 23
12:00 AM
Tue, Apr 23
1:00 AM
Tue, Apr 23
2:00 AM
Tue, Apr 23
3:00 AM
Tue, Apr 23
4:00 AM
Tue, Apr 23
5:00 AM
Tue, Apr 23
6:00 AM
Tue, Apr 23
7:00 AM
Tue, Apr 23
8:00 AM
Tue, Apr 23
9:00 AM
Tue, Apr 23
10:00 AM
Tue, Apr 23
11:00 AM
Tue, Apr 23
12:00 PM
Tue, Apr 23
1:00 PM
Tue, Apr 23
2:00 PM
Tue, Apr 23
3:00 PM
Tue, Apr 23
4:00 PM
Tue, Apr 23
5:00 PM
Tue, Apr 23
6:00 PM
Tue, Apr 23
7:00 PM
Tue, Apr 23
8:00 PM
Tue, Apr 23
9:00 PM
Tue, Apr 23
10:00 PM
Condition
Clouds

Clouds

Clouds

Clouds

Clouds

Clouds

Clouds

Clouds

Clouds

Clouds

Clouds

Clouds

Clouds

Clouds

Clouds

Clouds

Clouds

Clouds

Clouds

Clouds

Clouds

Clouds

Clouds

Clouds

Clouds

Clouds

Clouds

Clouds

Clouds

Clouds

Clouds

Clouds

Clouds

Clouds

Clouds

Clouds

Clouds

Clouds

Clouds

Clouds

Clouds

Clouds

Clouds

Clouds

Rain

Rain

Rain

Rain
Temperature 59°F58°F57°F56°F54°F52°F51°F51°F52°F57°F63°F70°F75°F78°F81°F83°F82°F81°F80°F76°F71°F64°F62°F61°F60°F59°F59°F58°F57°F56°F56°F55°F56°F60°F63°F65°F68°F69°F70°F71°F72°F72°F72°F70°F63°F59°F57°F57°F
Feels Like 57°F56°F56°F54°F52°F50°F49°F48°F49°F54°F61°F68°F73°F77°F79°F80°F80°F79°F80°F76°F70°F63°F61°F60°F59°F58°F57°F57°F56°F55°F55°F54°F55°F59°F62°F65°F67°F69°F69°F70°F71°F71°F71°F69°F63°F59°F56°F56°F
Cloudiness 98%95%97%90%73%59%57%98%99%99%99%100%99%43%61%69%77%82%85%100%82%89%85%71%76%98%98%97%93%87%86%71%72%69%69%69%71%39%34%31%27%26%23%78%84%89%92%93%
Visibility 6 mi6 mi6 mi6 mi6 mi6 mi6 mi6 mi6 mi6 mi6 mi6 mi6 mi6 mi6 mi6 mi6 mi6 mi6 mi6 mi6 mi6 mi6 mi6 mi6 mi6 mi6 mi6 mi6 mi6 mi6 mi6 mi6 mi6 mi6 mi6 mi6 mi6 mi6 mi6 mi6 mi6 mi6 mi6 mi6 mi6 mi6 mi6 mi
Precipitation 0%0%0%0%0%0%0%0%0%0%0%0%0%0%0%0%0%0%0%0%0%0%0%0%0%0%0%0%0%0%0%0%0%0%0%0%0%7%15%9%9%16%21%56%64%73%77%80%
Humidity 57%57%57%56%54%53%51%49%50%49%38%29%24%21%20%20%20%22%29%43%57%63%65%67%68%68%67%66%67%69%71%73%76%69%65%66%62%56%52%48%47%48%49%58%82%92%94%93%
Dew Point 44°F43°F42°F41°F38°F34°F33°F32°F33°F37°F36°F35°F35°F35°F35°F36°F36°F38°F44°F51°F54°F50°F49°F49°F48°F47°F47°F46°F45°F45°F46°F45°F47°F49°F50°F52°F53°F52°F51°F49°F49°F50°F51°F53°F56°F55°F54°F53°F
Pressure 29.91"29.91"29.91"29.91"29.91"29.91"29.88"29.88"29.91"29.88"29.88"29.85"29.83"29.8"29.8"29.77"29.74"29.71"29.71"29.71"29.71"29.74"29.77"29.8"29.8"29.8"29.8"29.8"29.8"29.83"29.83"29.85"29.85"29.88"29.88"29.88"29.88"29.88"29.88"29.88"29.85"29.85"29.85"29.88"29.88"29.91"29.94"29.97"
Wind Speed 6.9 mph6.9 mph6.9 mph7.1 mph7 mph7 mph7.1 mph7.1 mph6.7 mph5.7 mph5.1 mph4.6 mph4 mph3.8 mph3.4 mph3 mph3.3 mph4.2 mph4.9 mph4.5 mph2.4 mph0.6 mph3.2 mph4.3 mph4.4 mph4.2 mph4.1 mph3.9 mph3.3 mph3 mph2.8 mph2.8 mph2 mph1.1 mph3.8 mph5.1 mph6.3 mph7 mph7.5 mph7.2 mph7.4 mph6 mph7 mph3.4 mph3.9 mph5.2 mph4.8 mph3.9 mph
Wind
Direction
320°
NW
317°
NW
318°
NW
318°
NW
317°
NW
319°
NW
320°
NW
319°
NW
320°
NW
326°
NW
343°
NNW

N
29°
NNE
52°
NE
74°
ENE
100°
E
122°
ESE
138°
SE
147°
SSE
165°
SSE
151°
SSE
254°
WSW
309°
NW
321°
NW
328°
NNW
320°
NW
317°
NW
315°
NW
311°
NW
308°
NW
313°
NW
314°
NW
307°
NW
145°
SE
151°
SSE
152°
SSE
153°
SSE
149°
SSE
146°
SE
148°
SSE
151°
SSE
148°
SSE
137°
SE
116°
ESE
273°
W
272°
W
278°
W
293°
WNW

Daily Forecast

Date High Low Precip. Humidity
Today
Apr 21

Clouds
80 °F
49 °F
0%
26%
Monday
Apr 22

Clouds
83 °F
51 °F
0%
20%
Tuesday
Apr 23

Rain
72 °F
55 °F
80%
52%
Wednesday
Apr 24

Rain
72 °F
55 °F
100%
45%
Thursday
Apr 25

Rain
60 °F
51 °F
79%
66%
Friday
Apr 26

Rain
64 °F
45 °F
97%
48%
Saturday
Apr 27

Clouds
72 °F
42 °F
0%
29%
Sunday
Apr 28

Clouds
72 °F
46 °F
0%
36%
Monday
Apr 29

Clear
72 °F
46 °F
0%
27%
Tuesday
Apr 30

Clear
65 °F
42 °F
0%
27%
Wednesday
May 1

Clouds
63 °F
37 °F
0%
25%
Thursday
May 2

Clouds
73 °F
40 °F
0%
16%
Friday
May 3

Rain
52 °F
41 °F
100%
95%
Saturday
May 4

Rain
51 °F
40 °F
100%
76%
Sunday
May 5

Clouds
63 °F
37 °F
0%
36%
Monday
May 6

Rain
67 °F
40 °F
20%
35%

Temperature 8-14 Day Outlook



Precipitation 8-14 Day Outlook




Quick Links
Keswick Reservoir News
Keswick Reservoir Photos
Keswick Reservoir Videos




About Us
Contact Us
Site Map
Search Site
Advertise With Us
   
Keswick.USLakes.info
THE KESWICK RESERVOIR WEBSITE

Copyright 2024, Lakes Online
Privacy    |    Legal